CSN8459 ZYCC-ZGGG

Flight info

Callsign CSN8459
Flight time N/A
Altitude 36100
Route BUTET9D BUTET G341 TGO G212 MUDAM/K0891S1160 G212 VYK W37 GUSIV/K0896S1190 V52 OPUNI R473 BEMAG/K0906S1160 V5 ENVIP ENVIP8
Aircraft B77W/H-SDE1E2E3FGHIJ2J3J4J5M1RWXY/LB1D1

Departure

Time 2026-05-01 12:03
Airport Changchun Longjia International Airport (ZYCC)

Arrival

Time N/A
Airport Guangzhou Baiyun International Airport (ZGGG)
Time Latitude Longitude Altitude Speed Heading
2026-05-01 11:49 43.99281 125.68779 718 ft 0 kts 139°
2026-05-01 11:55 43.99298 125.68760 721 ft 4 kts 148°
2026-05-01 11:55 43.99322 125.68744 722 ft 4 kts 165°
2026-05-01 11:56 43.99347 125.68739 720 ft 4 kts 188°
2026-05-01 11:56 43.99372 125.68751 720 ft 4 kts 218°
2026-05-01 11:56 43.99382 125.68762 722 ft 0 kts 229°
2026-05-01 11:58 43.99381 125.68762 722 ft 0 kts 229°
2026-05-01 11:58 43.99347 125.68706 721 ft 13 kts 229°
2026-05-01 11:58 43.99368 125.68493 722 ft 13 kts 291°
2026-05-01 11:59 43.99330 125.68379 723 ft 14 kts 233°
2026-05-01 11:59 43.99262 125.68269 723 ft 18 kts 229°
2026-05-01 11:59 43.99172 125.68126 723 ft 20 kts 229°
2026-05-01 12:00 43.98990 125.67833 723 ft 20 kts 229°
2026-05-01 12:00 43.98899 125.67685 722 ft 20 kts 229°
2026-05-01 12:00 43.98717 125.67394 722 ft 20 kts 228°
2026-05-01 12:01 43.98622 125.67252 723 ft 20 kts 227°
2026-05-01 12:01 43.98613 125.67127 722 ft 12 kts 308°
2026-05-01 12:01 43.98671 125.67049 724 ft 12 kts 321°
2026-05-01 12:01 43.98715 125.67035 723 ft 3 kts 48°
2026-05-01 12:02 43.98721 125.67047 723 ft 0 kts 50°
2026-05-01 12:02 43.98730 125.67061 723 ft 11 kts 50°
2026-05-01 12:02 43.98936 125.67390 723 ft 85 kts 49°
2026-05-01 12:02 43.99482 125.68262 726 ft 155 kts 49°
2026-05-01 12:03 44.00300 125.69546 871 ft 194 kts 49°
2026-05-01 12:03 44.01184 125.70995 1502 ft 199 kts 47°
2026-05-01 12:03 44.02104 125.72487 2213 ft 206 kts 46°
2026-05-01 12:03 44.03066 125.74040 2742 ft 223 kts 46°
2026-05-01 12:04 44.04122 125.75742 3252 ft 238 kts 46°
2026-05-01 12:04 44.05207 125.77493 3923 ft 247 kts 46°
2026-05-01 12:04 44.06339 125.79321 4753 ft 250 kts 46°
2026-05-01 12:04 44.07476 125.81158 5616 ft 252 kts 46°
2026-05-01 12:05 44.08630 125.83022 6426 ft 256 kts 46°
2026-05-01 12:05 44.10977 125.86825 8055 ft 260 kts 45°
2026-05-01 12:05 44.12144 125.88716 8866 ft 262 kts 44°
2026-05-01 12:06 44.13334 125.90647 9673 ft 264 kts 44°
2026-05-01 12:06 44.14539 125.92602 10368 ft 269 kts 44°
2026-05-01 12:06 44.15851 125.94444 10959 ft 267 kts 26°
2026-05-01 12:06 44.17572 125.95214 11629 ft 259 kts 355°
2026-05-01 12:07 44.19300 125.94710 12471 ft 253 kts 329°
2026-05-01 12:07 44.20661 125.93269 13338 ft 250 kts 307°
2026-05-01 12:07 44.21495 125.91160 14199 ft 250 kts 288°
2026-05-01 12:07 44.21708 125.88764 15046 ft 253 kts 265°
2026-05-01 12:08 44.21334 125.86341 15784 ft 258 kts 261°
2026-05-01 12:08 44.20931 125.83896 16646 ft 259 kts 262°
2026-05-01 12:08 44.20450 125.81469 17515 ft 264 kts 252°
2026-05-01 12:08 44.19507 125.79215 18272 ft 278 kts 241°
2026-05-01 12:09 44.18269 125.77064 18591 ft 302 kts 237°
2026-05-01 12:09 44.16831 125.74757 18772 ft 328 kts 236°
2026-05-01 12:09 44.15261 125.72279 18955 ft 353 kts 235°
2026-05-01 12:09 44.13582 125.69624 19125 ft 377 kts 235°
2026-05-01 12:10 44.11817 125.66820 19599 ft 390 kts 235°
2026-05-01 12:10 44.08219 125.61074 21067 ft 400 kts 236°
2026-05-01 12:10 44.06391 125.58137 21895 ft 403 kts 236°
2026-05-01 12:11 44.02688 125.52184 23450 ft 410 kts 236°
2026-05-01 12:11 44.00835 125.49216 24061 ft 414 kts 236°
2026-05-01 12:11 43.98939 125.46181 24669 ft 418 kts 237°
2026-05-01 12:12 43.97022 125.43118 25249 ft 422 kts 237°
2026-05-01 12:12 43.95087 125.40028 25843 ft 425 kts 237°
2026-05-01 12:12 43.93139 125.36921 26408 ft 429 kts 237°
2026-05-01 12:12 43.91169 125.33780 26921 ft 433 kts 237°
2026-05-01 12:13 43.89181 125.30617 27450 ft 437 kts 237°
2026-05-01 12:13 43.87200 125.27467 27974 ft 440 kts 237°
2026-05-01 12:13 43.85179 125.24257 28490 ft 443 kts 237°
2026-05-01 12:13 43.83139 125.21021 28964 ft 446 kts 237°
2026-05-01 12:14 43.81092 125.17769 29404 ft 446 kts 238°
2026-05-01 12:14 43.79329 125.14279 29702 ft 439 kts 249°
2026-05-01 12:14 43.78105 125.10444 30042 ft 433 kts 257°
2026-05-01 12:14 43.77264 125.06527 30478 ft 427 kts 263°
2026-05-01 12:15 43.76875 125.02505 30894 ft 419 kts 271°
2026-05-01 12:15 43.76696 124.98484 31206 ft 420 kts 271°
2026-05-01 12:15 43.76506 124.94440 31459 ft 422 kts 271°
2026-05-01 12:15 43.76293 124.90374 31713 ft 424 kts 270°
2026-05-01 12:16 43.76067 124.86353 31954 ft 425 kts 270°
2026-05-01 12:16 43.75830 124.82274 32235 ft 425 kts 270°
2026-05-01 12:16 43.75590 124.78212 32607 ft 423 kts 270°
2026-05-01 12:16 43.75349 124.74174 33027 ft 420 kts 271°
2026-05-01 12:17 43.75110 124.70167 33454 ft 417 kts 271°
2026-05-01 12:17 43.74872 124.66183 33833 ft 414 kts 271°
2026-05-01 12:17 43.74638 124.62258 34094 ft 414 kts 271°
2026-05-01 12:17 43.74400 124.58277 34237 ft 416 kts 271°
2026-05-01 12:18 43.74159 124.54284 34392 ft 417 kts 271°
2026-05-01 12:18 43.73815 124.50289 34570 ft 422 kts 265°
2026-05-01 12:18 43.73141 124.46314 34755 ft 427 kts 262°
2026-05-01 12:18 43.72285 124.42367 34933 ft 430 kts 259°
2026-05-01 12:19 43.71291 124.38507 35107 ft 435 kts 255°
2026-05-01 12:19 43.70074 124.34674 35210 ft 435 kts 256°
2026-05-01 12:19 43.69091 124.30732 35316 ft 431 kts 261°
2026-05-01 12:19 43.68312 124.26747 35510 ft 429 kts 263°
2026-05-01 12:20 43.67703 124.22732 35703 ft 425 kts 267°
2026-05-01 12:20 43.67391 124.18687 35854 ft 423 kts 270°
2026-05-01 12:20 43.66957 124.10628 35958 ft 423 kts 271°
2026-05-01 12:21 43.66519 124.02547 35993 ft 419 kts 270°
2026-05-01 12:21 43.66060 123.94554 35995 ft 416 kts 270°
2026-05-01 12:22 43.65591 123.86646 36000 ft 414 kts 270°
2026-05-01 12:22 43.65115 123.78716 36009 ft 414 kts 270°
2026-05-01 12:23 43.64635 123.70826 36003 ft 415 kts 270°
2026-05-01 12:23 43.64145 123.62848 36002 ft 417 kts 270°
2026-05-01 12:24 43.63652 123.54931 35991 ft 416 kts 270°
2026-05-01 12:24 43.63150 123.46963 36000 ft 416 kts 270°
2026-05-01 12:25 43.62388 123.35020 36002 ft 416 kts 270°
2026-05-01 12:26 43.61875 123.27062 36010 ft 416 kts 270°
2026-05-01 12:26 43.61134 123.15186 36012 ft 415 kts 270°
2026-05-01 12:27 43.60555 123.03302 35976 ft 414 kts 270°
2026-05-01 12:28 43.59956 122.91438 36005 ft 413 kts 270°
2026-05-01 12:29 43.59334 122.79598 36009 ft 412 kts 270°
2026-05-01 12:29 43.58704 122.67830 36013 ft 412 kts 270°
2026-05-01 12:30 43.58058 122.56005 36013 ft 412 kts 270°
2026-05-01 12:31 43.57623 122.48166 36012 ft 412 kts 270°
2026-05-01 12:31 43.57181 122.40281 36004 ft 412 kts 270°
2026-05-01 12:32 43.56734 122.32405 36012 ft 411 kts 270°
2026-05-01 12:32 43.55206 122.20776 36020 ft 421 kts 257°
2026-05-01 12:33 43.52795 122.13388 36009 ft 433 kts 246°
2026-05-01 12:33 43.49315 122.06528 36017 ft 439 kts 243°
2026-05-01 12:34 43.45708 121.99730 36003 ft 438 kts 243°
2026-05-01 12:34 43.42129 121.92938 36017 ft 438 kts 243°
2026-05-01 12:35 43.38598 121.86184 36014 ft 438 kts 243°
2026-05-01 12:35 43.35047 121.79382 35988 ft 437 kts 243°
2026-05-01 12:36 43.31498 121.72597 36013 ft 436 kts 243°
2026-05-01 12:36 43.27983 121.65891 36019 ft 435 kts 243°
2026-05-01 12:37 43.24450 121.59168 36023 ft 434 kts 243°
2026-05-01 12:37 43.20919 121.52464 36010 ft 433 kts 243°
2026-05-01 12:38 43.17410 121.45819 36020 ft 432 kts 243°
2026-05-01 12:38 43.13890 121.39166 36026 ft 431 kts 243°
2026-05-01 12:39 43.10390 121.32564 36029 ft 431 kts 243°
2026-05-01 12:39 43.06868 121.25936 36032 ft 430 kts 243°
2026-05-01 12:40 43.03349 121.19332 36034 ft 429 kts 243°
2026-05-01 12:40 42.99853 121.12782 36030 ft 429 kts 242°
2026-05-01 12:41 42.96328 121.06193 36030 ft 429 kts 242°
2026-05-01 12:41 42.92827 120.99665 36025 ft 427 kts 242°
2026-05-01 12:42 42.89906 120.94229 36033 ft 427 kts 242°
2026-05-01 12:42 42.85796 120.86594 36038 ft 427 kts 242°
2026-05-01 12:43 42.82304 120.80124 36038 ft 427 kts 242°
2026-05-01 12:43 42.78782 120.73613 36046 ft 427 kts 242°
2026-05-01 12:44 42.75851 120.68206 36043 ft 427 kts 242°
2026-05-01 12:45 42.68211 120.54158 36022 ft 427 kts 242°
2026-05-01 12:45 42.65275 120.48777 36036 ft 426 kts 242°
2026-05-01 12:46 42.61739 120.42307 36047 ft 426 kts 242°
2026-05-01 12:46 42.58200 120.35847 36053 ft 426 kts 242°
2026-05-01 12:47 42.54685 120.29445 36043 ft 425 kts 242°
2026-05-01 12:47 42.51148 120.23017 36048 ft 425 kts 242°
2026-05-01 12:48 42.47614 120.16606 36062 ft 424 kts 242°
2026-05-01 12:48 42.43502 120.09166 36063 ft 424 kts 242°
2026-05-01 12:49 42.40558 120.03849 36053 ft 424 kts 242°
2026-05-01 12:49 42.37016 119.97467 36068 ft 424 kts 242°
2026-05-01 12:50 42.33465 119.91079 36059 ft 425 kts 242°
2026-05-01 12:50 42.29933 119.84743 36062 ft 424 kts 242°
2026-05-01 12:51 42.26380 119.78375 36054 ft 424 kts 242°
2026-05-01 12:52 42.21055 119.68865 36056 ft 425 kts 242°
2026-05-01 12:52 42.15697 119.59331 36045 ft 425 kts 242°
2026-05-01 12:53 42.10349 119.49837 36055 ft 426 kts 242°
2026-05-01 12:54 42.06762 119.43489 36060 ft 426 kts 242°
2026-05-01 12:54 42.01400 119.34024 36039 ft 425 kts 241°
2026-05-01 12:55 41.96015 119.24547 36048 ft 425 kts 241°
2026-05-01 12:56 41.92420 119.18238 36067 ft 425 kts 241°
2026-05-01 12:56 41.88845 119.11974 36036 ft 425 kts 241°
2026-05-01 12:57 41.85243 119.05678 36053 ft 425 kts 241°
2026-05-01 12:57 41.79828 118.96237 36062 ft 426 kts 241°
2026-05-01 12:58 41.76205 118.89934 36387 ft 425 kts 241°
2026-05-01 12:58 41.74424 118.86847 36707 ft 422 kts 241°
2026-05-01 12:59 41.70855 118.80668 37379 ft 415 kts 242°
2026-05-01 12:59 41.69095 118.77627 37859 ft 410 kts 242°
2026-05-01 12:59 41.65650 118.71676 37967 ft 401 kts 242°
2026-05-01 13:00 41.60578 118.62912 37961 ft 397 kts 242°
2026-05-01 13:01 41.55505 118.54182 37975 ft 399 kts 242°
2026-05-01 13:02 41.50382 118.45393 37967 ft 399 kts 243°
2026-05-01 13:07 41.18761 117.77299 37911 ft 395 kts 245°
2026-05-01 13:08 41.15854 117.71088 37924 ft 396 kts 245°
2026-05-01 13:08 41.12939 117.64867 37911 ft 397 kts 245°
2026-05-01 13:09 41.10004 117.58621 37913 ft 400 kts 245°
2026-05-01 13:09 41.07072 117.52393 37916 ft 401 kts 245°
2026-05-01 13:10 41.03515 117.46586 37934 ft 418 kts 231°
2026-05-01 13:10 40.98716 117.42022 37908 ft 435 kts 218°
2026-05-01 13:10 40.95889 117.40412 37925 ft 446 kts 212°
2026-05-01 13:11 40.93013 117.38992 37913 ft 448 kts 211°
2026-05-01 13:11 40.87147 117.36150 37914 ft 449 kts 212°
2026-05-01 13:12 40.81310 117.33229 37914 ft 447 kts 212°
2026-05-01 13:12 40.75546 117.30301 37919 ft 446 kts 212°
2026-05-01 13:13 40.69736 117.27374 37921 ft 447 kts 211°
2026-05-01 13:13 40.63869 117.24587 37923 ft 448 kts 210°
2026-05-01 13:14 40.58039 117.21863 37919 ft 447 kts 210°
2026-05-01 13:14 40.52177 117.19112 37919 ft 447 kts 210°
2026-05-01 13:15 40.46317 117.16353 37904 ft 447 kts 210°
2026-05-01 13:15 40.40495 117.13608 37928 ft 446 kts 210°
2026-05-01 13:16 40.34644 117.10858 37914 ft 447 kts 210°
2026-05-01 13:16 40.28794 117.08121 37917 ft 446 kts 209°
2026-05-01 13:17 40.17115 117.02663 37915 ft 447 kts 209°
2026-05-01 13:18 40.08371 116.98591 37899 ft 446 kts 209°
2026-05-01 13:18 40.02523 116.95872 37908 ft 446 kts 209°
2026-05-01 13:19 39.96690 116.93166 37905 ft 447 kts 209°
2026-05-01 13:20 39.87896 116.89094 37900 ft 447 kts 209°
2026-05-01 13:20 39.82035 116.86386 37906 ft 447 kts 209°
2026-05-01 13:21 39.73288 116.82307 37886 ft 446 kts 209°
2026-05-01 13:21 39.67449 116.79554 37891 ft 446 kts 209°
2026-05-01 13:22 39.61636 116.76823 37885 ft 447 kts 208°
2026-05-01 13:22 39.55778 116.74079 37882 ft 447 kts 208°
2026-05-01 13:23 39.49917 116.71339 37887 ft 448 kts 208°
2026-05-01 13:23 39.44036 116.68595 37886 ft 450 kts 208°
2026-05-01 13:24 39.38176 116.65866 37882 ft 450 kts 208°
2026-05-01 13:25 39.29304 116.61743 37882 ft 452 kts 208°
2026-05-01 13:25 39.23415 116.59010 37843 ft 452 kts 208°
2026-05-01 13:26 39.17811 116.55571 37876 ft 442 kts 217°
2026-05-01 13:26 39.12742 116.51203 37887 ft 437 kts 221°
2026-05-01 13:27 39.07757 116.46691 37873 ft 438 kts 221°
2026-05-01 13:27 39.00293 116.39996 37866 ft 438 kts 221°
2026-05-01 13:28 38.92816 116.33326 37865 ft 437 kts 221°
2026-05-01 13:29 38.82814 116.24430 37873 ft 437 kts 221°
2026-05-01 13:31 38.67827 116.11195 37851 ft 439 kts 218°
2026-05-01 13:31 38.59426 116.06117 37872 ft 451 kts 207°
2026-05-01 13:32 38.53564 116.03364 37828 ft 453 kts 207°
2026-05-01 13:33 38.38770 115.96327 37867 ft 457 kts 207°
2026-05-01 13:34 38.26708 115.91143 37869 ft 465 kts 199°
2026-05-01 13:35 38.16972 115.89533 37861 ft 471 kts 194°
2026-05-01 13:36 38.07259 115.88021 37861 ft 470 kts 194°
2026-05-01 13:36 37.97511 115.86481 37860 ft 469 kts 194°
2026-05-01 13:37 37.91079 115.85470 37859 ft 468 kts 194°
2026-05-01 13:37 37.84616 115.84445 37868 ft 468 kts 194°
2026-05-01 13:38 37.74942 115.82829 37868 ft 464 kts 198°
2026-05-01 13:39 37.68831 115.80663 37867 ft 456 kts 206°
2026-05-01 13:39 37.63056 115.77449 37878 ft 453 kts 211°